Regional Weather Roundup
Issued by NWS

Home | Current Version | Previous Version | Graphics & Text | Print | Product List | Glossary On
Versions: 1 2 3 4 5 6 7 8 9 10 11 12 13 14 15 16 17 18 19 20 21 22 23 24 25 26 27 28 29 30 31 32 33 34 35 36 37 38 39 40 41 42 43 44 45 46 47 48 49 50
086
ASUS43 KFSD 211110
RWRSD

WEATHER ROUNDUP FOR SOUTH DAKOTA
NATIONAL WEATHER SERVICE SIOUX FALLS SD
600 AM CDT MON MAY 21 2018

NOTE: "FAIR" INDICATES FEW OR NO CLOUDS BELOW 12,000 FEET WITH NO
SIGNIFICANT WEATHER AND/OR OBSTRUCTIONS TO VISIBILITY.


SDZ001>005-009-010-012>017-211200-
NORTHWEST AND NORTH CENTRAL SOUTH DAKOTA

CITY           SKY/WX    TMP DP  RH WIND       PRES   REMARKS
BUFFALO          N/A     45  36  70 SE5       29.93S
FAITH            N/A     43  39  86 SE10      30.01S
MOBRIDGE       CLOUDY    53  44  71 E9        30.01F
$$

SDZ012>016-024>037-041>051-057-063-072>074-211200-
SOUTHWEST AND SOUTH CENTRAL SOUTH DAKOTA

CITY           SKY/WX    TMP DP  RH WIND       PRES   REMARKS
RAPID CTY ARPT CLEAR     38  36  92 SE6       30.00F
PIERRE         PTCLDY    46  42  86 SE5       30.01S
CUSTER         CLEAR     38  31  76 W5        30.04F
ELLSWORTH AFB  CLEAR     44  42  93 SE7       29.99F
PHILIP         PTCLDY    39  38  96 NE3       30.03S
PINE RIDGE     CLEAR     47  42  83 SW7       30.02F
SPEARFISH      FAIR      41  37  87 CALM      29.99S
WINNER         FAIR      52  46  80 S6        30.04F
$$

SDZ004>011-016>023-039-040-211200-
NORTHEAST SOUTH DAKOTA

CITY           SKY/WX    TMP DP  RH WIND       PRES   REMARKS
ABERDEEN       CLOUDY    57  51  80 S3        30.06S
WATERTOWN      CLOUDY    58  51  78 SE6       30.05R
BROOKINGS      LGT RAIN  55  53  93 SE6       30.05F FOG
SISSETON         N/A     54  41  61 CALM      30.06S
$$

SDZ017-020-022-023-036>040-048>070-211200-
SOUTHEAST SOUTH DAKOTA

CITY           SKY/WX    TMP DP  RH WIND       PRES   REMARKS
SIOUX FALLS    LGT RAIN  55  55 100 E5        30.05S FOG
HURON          CLOUDY    54  52  93 E3        30.05S
CHAMBERLAIN    CLOUDY    53  53 100 CALM      30.04S
MITCHELL       LGT RAIN  54  53  97 E5        30.05F FOG
YANKTON        CLOUDY    53  52  96 CALM      30.05F FOG
$$

ABBREVIATIONS USED IN REMARKS
   TC - TEMPERATURE IN CELSIUS
  WCI - WIND CHILL INDEX
   HX - HEAT INDEX
  VSB - VISIBILITY





USA.gov is the U.S. government's official web portal to all federal, state and local government web resources and services.